2000 KE41 

Epoch 2000 June 5.0 TT = JDT 2451700.5                  Nakano

M  12.55442              (2000.0)            P               Q

n   0.18977531     Peri.   56.83901     -0.25455602     -0.66725964

a   2.9989985      Node    65.20662     +0.40394069     -0.73101678

e   0.8652100      Incl.   50.44791     +0.87865417     +0.14275522

P   5.19           H   17.1           G   0.15           U   *

Residuals in seconds of arc 

000528 704  0.2+  0.0     000529 557  0.2-  0.5-    000531 046  0.5+  0.2-  

000528 704  0.1-  0.6+    000529 557  0.1-  0.2-    000531 046  0.6-  0.6-  

000528 704  0.8+  0.6+    000529 557  0.2-  0.3-    000531 046  0.2+  0.5+  

000528 704  0.1+  0.7+    000529 557  0.0   0.2-    000531 046  0.9+  0.6+  

000528 704  0.2-  0.9+    000529 557  0.0   0.1-    000531 046  0.7+  0.0   

000528 611  0.1-  0.1+    000529 012  0.0   0.1-    000531 557  0.2-  0.1+  

000528 611  0.0   0.0     000529 012  0.1-  0.1-    000531 557  0.0   0.2+  

000528 611  0.7-  0.1-    000529 012  0.0   0.0     000531 106  0.0   0.5+  

000528 611  0.3+  0.3+    000529 012  0.0   0.2-    000531 557  0.2-  0.3+  

000528 611  0.1+  0.2+    000529 012  0.1-  0.2-    000531 557  0.1-  0.3+  

000529 739  0.5+  0.5+    000529 950 (2.0-  1.4-)   000531 118  0.4+  0.2-  

000529 739  0.1-  0.7-    000529 611  0.3+  0.1+    000531 118  0.1+  0.3-  

000529 739  0.2+  0.6-    000529 611  0.1+  0.1+    000531 118  0.0   0.1-  

000529 719  0.1-  0.8-    000529 611  0.2+  0.1+    000531 106  0.1+  0.5+  

000529 719  0.5-  0.7-    000529 952 (2.6-  3.3-)   000531 106  0.3-  0.5+  

000529 734 (1.1+  2.8+)   000529 952 (2.2-  3.1-)   000601 428 (1.9+  3.8+) 

000529 734 (1.3+  2.9+)   000529 952 (1.6-  2.7-)   000601 428 (2.0+  3.6+) 

000529 734 (1.2+  2.8+)   000530 950  0.3-  0.3+    000601 151  1.1+  0.6-  

000529 734 (1.2+  2.8+)   000530 860  0.8+  0.1-    000601 151  0.3+  0.5+  

000529 704  0.6+  0.1-    000530 860  0.4-  0.1+    000601 151  0.9+  0.4-  

000529 704  0.2+  0.5+    000530 860  0.5-  0.2-    000601 151  0.3+  0.0   

000529 858  0.3-  0.1-    000530 860  0.1-  0.7-    000601 151  0.3-  0.1+  

000529 858  0.1+  0.1+    000530 860  0.0   0.3-    000601 151  1.0-  0.1-  

000529 858  0.1+  0.3+    000530 739  0.2+  0.3-    000602 108 (0.7-  2.2-) 

000529 858  0.1+  0.0     000530 739  0.4+  0.7+    000602 108 (1.4-  4.6-) 

000529 704  0.1+  0.5+    000530 739  1.0-  1.7-    000602 108  1.7+  0.1+  

000529 704  0.2+  0.5+    000530 739  0.1+  0.8-    000602 108 (1.3-  5.0-) 

000529 704  0.0   0.2+    000530 670  0.5-  0.5-    000603 118  0.1-  0.4+  

000529 670  0.1+  0.3+    000530 670  0.4-  0.5+    000603 118  0.5-  0.1+  

000529 750  0.9+  0.4-    000530 658  0.6-  0.5-    000604 670  0.0   0.3-  

000529 750  0.5+  1.0+    000530 658  0.9-  0.6-    000604 670  0.4+  0.2+  

000529 750  1.0+  0.2-    000530 658  0.5-  0.3-    000604 670  0.5-  0.4-  

000529 750  0.3-  0.3+    000530 670  0.0   0.2-    000604 118  1.1-  0.0   

000529 670  0.1-  0.1+    000530 950  0.7-  0.3+    000604 118  0.0   0.1+  

000529 348  0.5-  0.9-    000530 950  0.5+  0.2+    000605 860  0.6+  0.2+  

000529 348  0.1+  0.2-    000531 704  0.2+  0.5+    000605 860  0.3-  0.6-  

000529 402  1.0-  1.1-    000531 704  0.2+  0.6+    000605 608 (0.4+  2.6-) 

000529 402  0.2-  0.4+    000531 670  0.5+  0.7+    000605 608 (0.1+  2.9-) 

000529 402  0.4-  0.1-    000531 837  0.9-  0.1+    000605 608 (0.4+  2.5-) 

000529 402  0.0   0.6+    000531 837  0.3-  0.0     000607 704  0.3-  0.2-  

000529 903  0.5-  1.1-    000531 704  0.3-  0.5+    000607 704  0.2-  0.5+  

000529 903  0.1+  0.2-    000531 837  0.4+  0.1-    000607 704  1.2+  0.4+  

000529 903  1.3-  0.4-    000531 837  0.4-  0.6-    000607 704  0.3-  0.2-  

000529 046  0.4+  0.5+    000531 704  0.5+  0.6+    000607 360  0.4-  0.4-  

000529 046  0.3+  0.5-    000531 670  0.2-  0.6-    000607 360  0.2-  0.1-  

000529 046  0.7+  0.4-    000531 670  0.1-  0.4+    000607 360  0.1-  0.4-  

000529 046  0.0   0.3-    000531 428  0.2+  1.5+                            

000529 046  0.1-  0.3-    000531 428  0.5+  1.4+                            

  

NAKANO

         **** Don't distribute anyone except personal use only ****

                (C) Copyright 2000 OAA/ComputingSection

write mail from CFAD0::NAKANO on 2000-06-09 04:15:22(JST).

 





–ß‚è‚Ü‚·B